Weather History for Hastings, NE

Change the Weather History Date:

Tuesday, February 15, 2011

  Actual Average Record
Temperature  
Mean Temperature 48 °F 30 °F  
Max Temperature 64 °F 40 °F 74 °F (1921)
Min Temperature 32 °F 20 °F -12 °F (1909)
Degree Days  
Heating Degree Days 17 35  
Month to date heating degree days 602 550  
Since 1 July heating degree days 4327 4199  
Cooling Degree Days 0 0  
Month to date cooling degree days 0 0  
Year to date cooling degree days 0 0  
Moisture  
Dew Point 30 °F    
Average Humidity 58    
Maximum Humidity 85    
Minimum Humidity 30    
Precipitation  
Precipitation 0.00 in 0.01 in 0.75 in (1969)
Month to date precipitation 0.10 0.24  
Year to date precipitation 1.10 0.65  
Snow  
Snow 0.00 in 0.20 in 5.00 in (1938)
Month to date snowfall 1.7 3.8  
Since 1 July snowfall 25.1 19.7  
Snow Depth 0.00 in    
Sea Level Pressure  
Sea Level Pressure 29.94 in    
Wind  
Wind Speed 7 mph (SW)    
Max Wind Speed 15 mph    
Max Gust Speed 22 mph    
Visibility 10 miles    
Events      
T = Trace of Precipitation, MM = Missing Value Source: NWS Daily Summary

Daily Weather History Graph

Daily Weather History Graph

Search for Another Location

Airport:

Trip Planner

Search our weather history database for the weather conditions in past years. The results will help you decide how hot, cold, wet, or windy it might be!

Date:

Astronomy

Feb. 15, 2011 Rise Set
Actual Time 7:27 AM CST 6:08 PM CST
Civil Twilight 6:59 AM CST 6:36 PM CST
Nautical Twilight 6:27 AM CST 7:08 PM CST
Astronomical Twilight 5:56 AM CST 7:40 PM CST
Moon 3:19 PM CST (2/15) 5:22 AM CST (2/15)
Length of Visible Light 11h 36m
Length of Day
10h 40m
Waxing Gibbous, 91% of the Moon is Illuminated
Feb 15
Waxing Gibbous
Feb 18
Full
Feb 24
Last Quarter
Mar 4
New
Mar 12
First Quarter

Hourly Weather History & Observations

Time (CST) Temp. Windchill Dew Point Humidity Pressure Visibility Wind Dir Wind Speed Gust Speed Precip Events Conditions
12:53 AM 34.0 °F 27.2 °F 28.9 °F 82% 30.03 in 10.0 mi South 8.1 mph - N/A   Clear
1:53 AM 34.0 °F 28.0 °F 28.9 °F 82% 30.01 in 10.0 mi South 6.9 mph - N/A   Clear
2:53 AM 33.1 °F 26.1 °F 28.0 °F 82% 30.00 in 10.0 mi South 8.1 mph - N/A   Clear
3:53 AM 32.0 °F 23.6 °F 28.0 °F 85% 29.96 in 10.0 mi South 10.4 mph - N/A   Clear
4:53 AM 32.0 °F 24.2 °F 28.0 °F 85% 29.94 in 10.0 mi South 9.2 mph - N/A   Clear
5:53 AM 34.0 °F 26.0 °F 27.0 °F 75% 29.94 in 10.0 mi South 10.4 mph - N/A   Clear
6:53 AM 34.0 °F 26.6 °F 27.0 °F 75% 29.94 in 10.0 mi SW 9.2 mph - N/A   Clear
7:53 AM 34.0 °F 24.2 °F 26.1 °F 73% 29.93 in 10.0 mi SSW 15.0 mph 20.7 mph N/A   Clear
8:53 AM 37.0 °F 29.8 °F 27.0 °F 67% 29.95 in 10.0 mi SW 10.4 mph 19.6 mph N/A   Clear
9:53 AM 37.0 °F 31.0 °F 28.0 °F 70% 29.95 in 10.0 mi SW 8.1 mph - N/A   Clear
10:53 AM 41.0 °F 35.2 °F 30.0 °F 65% 29.95 in 10.0 mi WSW 9.2 mph - N/A   Clear
11:53 AM 46.9 °F - 32.0 °F 56% 29.95 in 10.0 mi West 11.5 mph - N/A   Clear
12:53 PM 53.6 °F - 33.8 °F 47% 29.89 in 10.0 mi West 10.4 mph - N/A   Clear
1:53 PM 59.0 °F - 33.1 °F 38% 29.89 in 10.0 mi WNW 10.4 mph - N/A   Clear
2:53 PM 63.0 °F - 33.1 °F 33% 29.88 in 10.0 mi NW 6.9 mph - N/A   Clear
3:53 PM 63.0 °F - 30.0 °F 29% 29.89 in 10.0 mi WNW 4.6 mph - N/A   Clear
4:53 PM 62.1 °F - 36.0 °F 38% 29.90 in 10.0 mi West 3.5 mph - N/A   Clear
5:53 PM 57.0 °F - 33.1 °F 40% 29.90 in 10.0 mi Calm Calm - N/A   Clear
6:53 PM 50.0 °F - 33.1 °F 52% 29.93 in 10.0 mi Calm Calm - N/A   Clear
7:53 PM 46.9 °F - 33.1 °F 59% 29.94 in 10.0 mi South 3.5 mph - N/A   Clear
8:53 PM 39.9 °F 36.7 °F 32.0 °F 73% 29.94 in 10.0 mi SW 4.6 mph - N/A   Clear
9:53 PM 46.9 °F - 30.0 °F 52% 29.93 in 10.0 mi SSW 8.1 mph - N/A   Clear
10:53 PM 42.1 °F 39.2 °F 30.0 °F 62% 29.94 in 10.0 mi SW 4.6 mph - N/A   Clear
11:53 PM 43.0 °F 40.3 °F 28.9 °F 58% 29.92 in 10.0 mi SSW 4.6 mph - N/A   Clear